Location: *
(23.5860°S, 65.4036°W)
Time: 14:06:43
(UTC+00:00)

Cosmos 1655 Rocket - Pass Details

Date: 25 August 2019
Orbit: 970 x 1006 km, 82.9° (Epoch: 19 September)

Event Time Altitude Azimuth Distance (km) Brightness Sun altitude
Rises 23:25:20 0° 352° (N) 3,689 7.2 -18.2°
Reaches altitude 10° 23:27:50 10° 350° (N) 2,751 6.5 -18.8°
Maximum altitude 23:34:09 74° 265° (W) 1,043 4.2 -20.3°
Drops below altitude 10° 23:40:35 10° 180° (S) 2,798 6.4 -21.7°
Sets 23:43:09 0° 178° (S) 3,755 7.0 -22.3°
